Regional Weather Roundup
Issued by NWS

Home | Current Version | Previous Version | Text Only | Print | Product List | Glossary On
Versions: 1 2 3 4 5 6 7 8 9 10 11 12 13 14 15 16 17 18 19 20 21 22 23 24 25 26 27 28 29 30 31 32 33 34 35 36 37 38 39 40 41 42 43 44 45 46 47 48 49 50
000
ASUS44 KOUN 270710
RWROK

WEATHER ROUNDUP FOR OKLAHOMA
NATIONAL WEATHER SERVICE NORMAN OK
100 AM CST SAT DEC 27 2014

NOTE: "FAIR" INDICATES FEW OR NO CLOUDS BELOW 12,000 FEET WITH NO
      SIGNIFICANT WEATHER AND/OR OBSTRUCTIONS TO VISIBILITY.

OKZ001>007-009>012-014-015-017-270800-
NORTHWEST OKLAHOMA AND THE PANHANDLE

CITY           SKY/WX    TMP DP  RH WIND       PRES   REMARKS
GAGE           CLOUDY    27  22  81 N13       30.16F WCI  16
ENID/WOODRING  CLOUDY    36  28  75 NW16      30.13F WCI  26
$$

OKZ016-021>023-033>039-044-045-270800-
SOUTHWEST OKLAHOMA

CITY           SKY/WX    TMP DP  RH WIND       PRES   REMARKS
LAWTON/REGL    CLOUDY    39  29  67 N21       30.11R WCI  29
LAWTON/FT SILL CLOUDY    38  30  72 N21G31    30.09S WCI  28
FREDERICK      CLOUDY    38  28  67 N18       30.10R WCI  28
CLINTON        CLOUDY    34  24  67 N25       30.15R WCI  21
HOBART         CLOUDY    36  25  64 N15       30.14S WCI  27
ALTUS AFB      CLOUDY    38  26  62 N17G26    30.12S WCI  29
$$

OKZ018>020-024>031-270800-
CENTRAL OKLAHOMA

CITY           SKY/WX    TMP DP  RH WIND       PRES   REMARKS
OKLAHOMA CITY  CLOUDY    37  28  70 N25       30.10F WCI  25
OKC/WILEY POST CLOUDY    37  28  70 N17G25    30.13F WCI  28
OKC/TINKER AFB CLOUDY    36  29  77 N16G25    30.11S WCI  26
STILLWATER     CLOUDY    37  29  72 NW9       30.15R WCI  30
GUTHRIE        CLOUDY    37  29  72 VRB6      30.15S WCI  32
$$

OKZ008-013-054>072-270800-
NORTHEAST OKLAHOMA

CITY           SKY/WX    TMP DP  RH WIND       PRES   REMARKS
TULSA          CLOUDY    42  36  79 NW15      30.10R
TULSA/JONES    CLOUDY    42  34  73 NW7       30.12R
PONCA CITY     CLOUDY    36  29  75 NW10      30.14S WCI  28
BARTLESVILLE   CLOUDY    39  33  79 NW9       30.13R WCI  33
MUSKOGEE       LGT RAIN  46  44  93 NW13      30.08R
$$

OKZ032-040>043-046>053-073>077-270800-
SOUTH CENTRAL/SOUTHEAST OKLAHOMA

CITY           SKY/WX    TMP DP  RH WIND       PRES   REMARKS
ARDMORE/DWNTWN CLOUDY    43  36  75 N10       30.08R
MCALESTER      LGT RAIN  45  42  89 N15G22    30.07R FOG
$$



USA.gov is the U.S. government's official web portal to all federal, state and local government web resources and services.